Guthrie, OK

11:04 AM CST on December 03, 2016 (GMT -0600)
Guthrie Municipal

Weather History for KGOK - December, 2012

Change the Weather History Date:

Tuesday, December 25, 2012

  Actual Average Record
Temperature  
Mean Temperature 26 °F -  
Max Temperature 30 °F 44 °F 88 °F (1955)
Min Temperature 19 °F 23 °F -2 °F (1983)
Degree Days  
Heating Degree Days 40    
Moisture  
Dew Point 17 °F    
Average Humidity 71    
Maximum Humidity 81    
Minimum Humidity 58    
Precipitation  
Precipitation 0.04 in - - ()
Sea Level Pressure  
Sea Level Pressure 30.04 in    
Wind  
Wind Speed 11 mph (NNE)    
Max Wind Speed 18 mph    
Max Gust Speed 34 mph    
Visibility 6 miles    
Events Rain , Snow    
Averages and records for this station are not official NWS values.
T = Trace of Precipitation, MM = Missing Value Source: NWS Daily Summary

Daily Weather History Graph

Daily Weather History Graph

Search for Another Location

Airport or City:

Trip Planner

Search our weather history database for the weather conditions in past years. The results will help you decide how hot, cold, wet, or windy it might be!

Date:

Astronomy

Dec. 25, 2012 Rise Set
Actual Time 7:38 AM CST 5:22 PM CST
Civil Twilight 7:09 AM CST 5:50 PM CST
Nautical Twilight 6:37 AM CST 6:22 PM CST
Astronomical Twilight 6:06 AM CST 6:53 PM CST
Moon 3:30 PM CST (12/25) 5:12 AM CST (12/25)
Length of Visible Light 10h 41m
Length of Day
9h 44m
Waxing Gibbous, 94% of the Moon is Illuminated
Dec 25
Waxing Gibbous
Dec 28
Full
Jan 4
Last Quarter
Jan 11
New
Jan 18
First Quarter

Hourly Weather History & Observations

Time (CST) Temp. Windchill Dew Point Humidity Pressure Visibility Wind Dir Wind Speed Gust Speed Precip Events Conditions
12:53 AM 30.9 °F 23.5 °F 19.0 °F 61% 29.96 in 7.0 mi NNE 8.1 mph - 0.00 in   Overcast
1:53 AM 30.0 °F 20.5 °F 19.0 °F 64% 29.94 in 6.0 mi ENE 11.5 mph 17.3 mph N/A   Haze
2:53 AM 28.9 °F 19.2 °F 21.9 °F 75% 29.95 in 4.0 mi NE 11.5 mph - 0.00 in   Overcast
3:31 AM 28.4 °F 19.1 °F 23.0 °F 80% 29.94 in 3.0 mi NE 10.4 mph - 0.01 in Rain Light Freezing Rain
3:41 AM 28.4 °F 18.5 °F 23.0 °F 80% 29.93 in 2.5 mi NE 11.5 mph - 0.01 in Rain Light Freezing Rain
3:53 AM 28.9 °F 19.8 °F 23.0 °F 78% 29.96 in 2.5 mi NE 10.4 mph - 0.01 in Rain Light Freezing Rain
4:11 AM 28.4 °F 17.0 °F 21.2 °F 74% 29.91 in 3.0 mi NE 15.0 mph 21.9 mph 0.01 in Rain Light Freezing Rain
4:53 AM 27.0 °F 14.7 °F 21.9 °F 81% 29.91 in 4.0 mi NE 16.1 mph 23.0 mph 0.01 in   Haze
5:53 AM 26.1 °F 14.5 °F 19.0 °F 75% 29.96 in 6.0 mi ENE 13.8 mph 23.0 mph 0.00 in   Overcast
6:36 AM 26.6 °F 17.5 °F 19.4 °F 74% 29.95 in 5.0 mi NE 9.2 mph - 0.00 in Rain Light Freezing Rain
6:53 AM 25.0 °F 16.3 °F 19.0 °F 78% 29.97 in 5.0 mi NE 8.1 mph 17.3 mph 0.00 in Rain Light Freezing Rain
7:41 AM 24.8 °F 15.3 °F 17.6 °F 74% 29.96 in 6.0 mi NNE 9.2 mph 20.7 mph 0.00 in   Haze
7:53 AM 24.1 °F 13.7 °F 18.0 °F 77% 30.00 in 7.0 mi NNE 10.4 mph 20.7 mph 0.00 in   Overcast
8:45 AM 24.8 °F 13.4 °F 17.6 °F 74% 29.96 in 5.0 mi NNE 12.7 mph 21.9 mph N/A   Haze
8:53 AM 24.1 °F 13.1 °F 17.1 °F 75% 29.99 in 5.0 mi NNE 11.5 mph 24.2 mph N/A   Haze
9:18 AM 24.8 °F 12.9 °F 17.6 °F 74% 29.97 in 5.0 mi NNE 13.8 mph 27.6 mph N/A   Haze
9:45 AM 24.8 °F 14.0 °F 17.6 °F 74% 29.96 in 5.0 mi NNE 11.5 mph 23.0 mph N/A   Haze
9:53 AM 25.0 °F 13.1 °F 17.1 °F 72% 30.00 in 5.0 mi NNE 13.8 mph 23.0 mph N/A   Haze
10:09 AM 24.8 °F 15.3 °F 17.6 °F 74% 29.99 in 4.0 mi NNE 9.2 mph 20.7 mph 0.00 in   Overcast
10:15 AM 24.8 °F 12.4 °F 17.6 °F 74% 30.00 in 2.5 mi NNE 15.0 mph 23.0 mph 0.01 in Snow Light Snow
10:24 AM 24.8 °F 14.0 °F 17.6 °F 74% 30.00 in 1.2 mi NNE 11.5 mph 24.2 mph 0.01 in Snow Light Snow
10:38 AM 24.8 °F 14.0 °F 17.6 °F 74% 29.99 in 1.5 mi North 11.5 mph 26.5 mph 0.01 in Snow Light Snow
10:53 AM 24.1 °F 13.1 °F 18.0 °F 77% 30.04 in 1.2 mi North 11.5 mph 24.2 mph 0.02 in Snow Light Snow
11:09 AM 24.8 °F 14.0 °F 17.6 °F 74% 30.01 in 3.0 mi NNE 11.5 mph 23.0 mph 0.00 in   Haze
11:42 AM 24.8 °F 11.1 °F 17.6 °F 74% 30.02 in 2.0 mi NNE 18.4 mph 28.8 mph 0.00 in Snow Light Snow
11:53 AM 25.0 °F 12.2 °F 18.0 °F 75% 30.05 in 2.0 mi North 16.1 mph 28.8 mph 0.00 in Snow Light Snow
12:26 PM 26.6 °F 18.2 °F 19.4 °F 74% 30.03 in 4.0 mi North 8.1 mph 25.3 mph 0.00 in Snow Light Snow
12:53 PM 26.1 °F 15.6 °F 19.0 °F 75% 30.07 in 5.0 mi North 11.5 mph 26.5 mph 0.00 in   Haze
1:53 PM 26.1 °F 14.0 °F 18.0 °F 71% 30.08 in 6.0 mi North 15.0 mph 24.2 mph N/A   Haze
2:53 PM 26.1 °F 15.0 °F 17.1 °F 69% 30.11 in 6.0 mi North 12.7 mph 28.8 mph N/A   Haze
3:53 PM 26.1 °F 12.7 °F 17.1 °F 69% 30.12 in 8.0 mi North 18.4 mph 34.5 mph N/A   Overcast
4:53 PM 27.0 °F 18.7 °F 17.1 °F 66% 30.14 in 9.0 mi NNE 8.1 mph 21.9 mph N/A   Overcast
5:40 PM 26.6 °F 15.2 °F 15.8 °F 64% 30.10 in 10.0 mi North 13.8 mph 27.6 mph N/A   Overcast
5:53 PM 27.0 °F 17.3 °F 16.0 °F 63% 30.14 in 10.0 mi North 10.4 mph 24.2 mph N/A   Overcast
6:42 PM 24.8 °F 11.5 °F 14.0 °F 64% 30.12 in 10.0 mi North 17.3 mph 26.5 mph N/A   Mostly Cloudy
6:53 PM 24.1 °F 12.5 °F 14.0 °F 65% 30.18 in 10.0 mi North 12.7 mph 31.1 mph N/A   Overcast
7:53 PM 23.0 °F 11.1 °F 12.0 °F 63% 30.20 in 10.0 mi North 12.7 mph 23.0 mph N/A   Overcast
8:53 PM 21.9 °F 11.7 °F 10.0 °F 60% 30.22 in 10.0 mi North 9.2 mph 20.7 mph N/A   Overcast
9:53 PM 21.9 °F 11.7 °F 9.0 °F 58% 30.25 in 10.0 mi North 9.2 mph 25.3 mph N/A   Overcast
10:53 PM 21.0 °F 11.4 °F 9.0 °F 60% 30.28 in 10.0 mi North 8.1 mph 19.6 mph N/A   Overcast
11:53 PM 19.9 °F 8.6 °F 8.1 °F 60% 30.29 in 10.0 mi NNW 10.4 mph 18.4 mph N/A   Overcast